Change the Weather History Date:

Saturday, February 2, 2013

  Actual Average Record
Temperature  
Mean Temperature 22 °F -  
Max Temperature 30 °F 43 °F 62 °F (1990)
Min Temperature 14 °F 23 °F -9 °F (1951)
Degree Days  
Heating Degree Days 43    
Moisture  
Dew Point 19 °F    
Average Humidity 85    
Maximum Humidity 93    
Minimum Humidity 71    
Precipitation  
Precipitation 0.01 in - - ()
Sea Level Pressure  
Sea Level Pressure 30.17 in    
Wind  
Wind Speed 7 mph (SSW)    
Max Wind Speed 14 mph    
Max Gust Speed 20 mph    
Visibility 5 miles    
Events Fog , Snow    
Averages and records for this station are not official NWS values.
T = Trace of Precipitation, MM = Missing Value Source: NWS Daily Summary

Daily Weather History Graph

Daily Weather History Graph

Search for Another Location

Airport or City:

Trip Planner

Search our weather history database for the weather conditions in past years. The results will help you decide how hot, cold, wet, or windy it might be!

Date:

Astronomy

Feb. 02, 2013 Rise Set
Actual Time 7:43 AM EST 6:00 PM EST
Civil Twilight 7:15 AM EST 6:28 PM EST
Nautical Twilight 6:43 AM EST 7:00 PM EST
Astronomical Twilight 6:11 AM EST 7:31 PM EST
Moon 12:02 AM EST (2/2) 10:56 AM EST (2/2)
Length of Visible Light 11h 13m
Length of Day
10h 17m
Waning Gibbous, 60% of the Moon is Illuminated
Feb 2
Waning Gibbous
Feb 3
Last Quarter
Feb 10
New
Feb 17
First Quarter
Feb 25
Full

Hourly Weather History & Observations

Time (EST) Temp. Windchill Dew Point Humidity Pressure Visibility Wind Dir Wind Speed Gust Speed Precip Events Conditions
12:53 AM 14.0 °F 5.1 °F 7.0 °F 74% 30.38 in 10.0 mi South 5.8 mph - N/A   Scattered Clouds
1:53 AM 15.1 °F 7.7 °F 8.1 °F 74% 30.35 in 10.0 mi South 4.6 mph - N/A   Mostly Cloudy
2:53 AM 16.0 °F 8.8 °F 8.1 °F 71% 30.34 in 10.0 mi South 4.6 mph - N/A   Overcast
3:53 AM 16.0 °F 7.4 °F 9.0 °F 74% 30.32 in 10.0 mi South 5.8 mph - N/A   Overcast
4:53 AM 17.1 °F 10.0 °F 10.0 °F 74% 30.30 in 10.0 mi SSW 4.6 mph - N/A   Overcast
5:53 AM 17.1 °F 10.0 °F 12.0 °F 81% 30.30 in 4.0 mi SSW 4.6 mph - 0.00 in Snow Light Snow
6:10 AM 17.6 °F 12.3 °F 12.2 °F 79% 30.28 in 2.5 mi South 3.5 mph - 0.00 in Snow Light Snow
6:35 AM 17.6 °F 10.7 °F 14.0 °F 86% 30.28 in 1.8 mi South 4.6 mph - 0.00 in Snow Light Snow
6:53 AM 17.6 °F 10.7 °F 15.8 °F 93% 30.27 in 2.0 mi SSE 4.6 mph - N/A Snow Light Snow
7:02 AM 17.6 °F 12.3 °F 14.0 °F 86% 30.26 in 1.8 mi South 3.5 mph - 0.00 in Snow Light Snow
7:34 AM 17.6 °F 10.7 °F 15.8 °F 93% 30.24 in 2.5 mi South 4.6 mph - 0.00 in Snow Light Snow
7:49 AM 17.6 °F 12.3 °F 15.8 °F 93% 30.24 in 1.2 mi South 3.5 mph - 0.00 in Snow Light Snow
7:53 AM 18.0 °F 12.7 °F 16.0 °F 92% 30.27 in 1.0 mi South 3.5 mph - 0.00 in Snow Light Snow
7:59 AM 17.6 °F 10.7 °F 15.8 °F 93% 30.24 in 0.8 mi SSW 4.6 mph - 0.00 in Snow Light Snow
8:33 AM 19.4 °F 11.5 °F 17.6 °F 93% 30.22 in 0.8 mi South 5.8 mph - 0.01 in Snow Light Snow
8:53 AM 19.0 °F 8.2 °F 17.1 °F 92% 30.24 in 0.5 mi South 9.2 mph - 0.01 in Fog , Snow Snow
8:59 AM 19.4 °F 7.9 °F 17.6 °F 93% 30.21 in 0.2 mi South 10.4 mph - 0.00 in Fog , Snow Snow
9:09 AM 19.4 °F 9.5 °F 17.6 °F 93% 30.20 in 0.5 mi South 8.1 mph - 0.00 in Fog , Snow Snow
9:19 AM 19.4 °F 7.9 °F 17.6 °F 93% 30.19 in 2.0 mi South 10.4 mph - 0.00 in Snow Light Snow
9:30 AM 21.2 °F 10.9 °F 17.6 °F 86% 30.18 in 3.0 mi South 9.2 mph - 0.00 in Snow Light Snow
9:51 AM 21.2 °F 10.1 °F 17.6 °F 86% 30.16 in 1.8 mi South 10.4 mph - 0.00 in Snow Light Snow
9:52 AM 21.0 °F 10.6 °F 18.0 °F 88% 30.19 in 1.8 mi South 9.2 mph - 0.00 in Snow Light Snow
10:06 AM 21.2 °F 9.5 °F 19.4 °F 93% 30.16 in 0.8 mi South 11.5 mph - 0.00 in Snow Light Snow
10:15 AM 21.2 °F 8.9 °F 19.4 °F 93% 30.15 in 1.0 mi South 12.7 mph - 0.00 in Snow Light Snow
10:25 AM 21.2 °F 11.7 °F 19.4 °F 93% 30.14 in 2.0 mi South 8.1 mph - 0.00 in Snow Light Snow
10:34 AM 21.2 °F 10.9 °F 19.4 °F 93% 30.14 in 7.0 mi South 9.2 mph - 0.00 in   Overcast
10:53 AM 23.0 °F 14.7 °F 19.0 °F 85% 30.17 in 10.0 mi SSW 6.9 mph - 0.00 in   Overcast
11:53 AM 26.1 °F 17.6 °F 21.9 °F 84% 30.14 in 10.0 mi South 8.1 mph - 0.00 in   Overcast
12:53 PM 30.0 °F 21.1 °F 24.1 °F 79% 30.09 in 10.0 mi SW 10.4 mph - N/A   Overcast
1:05 PM 30.2 °F 19.8 °F 24.8 °F 80% 30.06 in 10.0 mi SW 13.8 mph 19.6 mph N/A   Overcast
1:53 PM 30.9 °F 21.2 °F 23.0 °F 72% 30.05 in 10.0 mi SW 12.7 mph - N/A   Overcast
2:53 PM 30.9 °F 23.5 °F 25.0 °F 79% 30.04 in 3.0 mi WSW 8.1 mph - 0.00 in Snow Light Snow
3:03 PM 30.2 °F 21.9 °F 26.6 °F 86% 30.02 in 2.0 mi WSW 9.2 mph - 0.00 in Snow Light Snow
3:50 PM 30.2 °F 23.4 °F 28.4 °F 93% 30.02 in 0.8 mi WSW 6.9 mph - 0.00 in Snow Light Snow
3:53 PM 30.0 °F 24.1 °F 28.0 °F 92% 30.04 in 0.8 mi WSW 5.8 mph - 0.00 in Snow Light Snow
4:26 PM 30.2 °F 25.4 °F 28.4 °F 93% 30.02 in 10.0 mi SW 4.6 mph - 0.00 in   Overcast
4:53 PM 30.9 °F 24.3 °F 27.0 °F 85% 30.04 in 10.0 mi WSW 6.9 mph - 0.00 in   Overcast
5:53 PM 30.9 °F 22.8 °F 25.0 °F 79% 30.05 in 10.0 mi West 9.2 mph - N/A   Overcast
6:53 PM 30.0 °F 21.7 °F 26.1 °F 85% 30.06 in 10.0 mi WNW 9.2 mph - N/A   Overcast
7:53 PM 30.0 °F 21.1 °F 26.1 °F 85% 30.07 in 10.0 mi West 10.4 mph - N/A   Overcast
8:53 PM 30.0 °F 21.7 °F 24.1 °F 79% 30.07 in 10.0 mi West 9.2 mph - N/A   Overcast
9:53 PM 30.0 °F 21.1 °F 23.0 °F 75% 30.08 in 10.0 mi West 10.4 mph - N/A   Overcast
10:53 PM 30.0 °F 21.1 °F 23.0 °F 75% 30.06 in 10.0 mi West 10.4 mph - N/A   Overcast
11:53 PM 30.0 °F 21.1 °F 21.9 °F 72% 30.06 in 10.0 mi West 10.4 mph - N/A   Overcast